EHI
5 3 1 0 0 0 0 0 0 0 0 0 0 0 0 0 0 0 0 0 1 1 1 1 1 0 0 1 5 6 5 4 4 3 1 1 2 3 4 5 5 4 2 1 1 0 1 2 3
3 2 0 0 0 0 0 0 0 0 0 0 0 0 0 0 0 0 0 0 0 0 0 1 1 1 0 1 3 6 5 3 3 2 0 0 1 1 2 3 3 3 3 2 2 1 1 2 3
1 0 0 0 0 0 0 0 0 0 0 0 0 0 0 0 0 0 0 0 0 0 0 0 1 2 1 1 2 3 3 2 1 0 0 0 0 0 0 1 1 2 2 2 2 2 2 2 3
0 0 0 0 0 0 0 0 0 0 0 0 0 0 0 0 0 0 0 0 0 0 0 0 1 1 1 1 1 1 1 0 0 0 0 0 0 0 0 0 0 1 1 1 1 1 1 2 3
0 0 0 0 0 0 0 0 0 0 0 0 0 0 0 0 0 0 0 0 0 0 0 0 0 0 0 1 1 0 0 0 0 0 0 0 0 0 0 0 0 0 0 0 0 0 0 1 2
0 0 0 0 0 0 0 0 0 0 0 0 0 0 0 0 0 0 0 0 0 0 0 0 0 0 0 0 0 0 0 0 0 0 0 0 0 0 0 0 0 0 0 0 0 0 0 1 2
0 0 0 0 0 0 0 0 0 0 0 0 0 0 0 0 0 0 0 0 0 0 0 0 0 0 0 0 0 0 0 0 0 0 0 0 0 0 0 0 0 0 0 0 0 0 0 0 1
0 0 0 0 0 0 0 0 0 0 0 0 0 0 0 0 0 0 0 0 0 0 0 0 0 0 0 0 0 0 0 0 0 0 0 0 0 0 0 0 0 0 0 0 0 0 0 0 0
0 0 0 0 0 0 0 0 0 0 0 0 0 0 0 0 0 0 0 0 0 0 0 0 0 0 0 0 0 0 0 0 0 0 0 0 0 0 0 0 0 0 0 0 0 0 0 0 0
0 0 0 0 0 0 0 0 0 0 0 0 0 0 0 0 0 0 0 0 0 0 0 0 0 0 0 0 0 0 0 0 0 0 0 0 0 0 0 0 0 0 0 0 0 0 0 0 0
0 0 0 0 0 0 0 0 0 0 0 0 0 0 0 0 0 0 0 0 0 0 0 0 0 0 0 0 0 0 0 0 0 0 0 0 0 0 0 0 0 0 0 0 0 0 0 0 0
0 0 0 0 0 0 0 0 0 0 0 0 0 0 0 0 0 0 0 0 0 0 0 0 0 0 0 0 0 0 0 0 0 0 0 0 0 0 0 0 0 0 0 0 0 0 0 0 0
0 0 0 0 0 0 0 0 0 0 0 0 0 0 0 0 0 0 0 0 0 0 0 0 0 0 0 0 0 0 0 0 0 0 0 0 0 0 0 0 0 0 0 0 0 0 0 0 0
0 0 0 0 0 0 0 0 0 0 0 0 0 0 0 0 0 0 0 0 0 0 0 0 0 0 0 0 0 0 0 0 0 0 0 0 0 0 0 0 0 0 0 0 0 0 0 0 0
0 0 0 0 0 0 0 0 0 0 0 0 0 0 0 0 0 0 0 0 0 0 0 0 0 0 0 0 0 0 0 0 0 0 0 0 0 0 0 0 0 0 0 0 0 0 0 0 0
0 0 0 0 0 0 0 0 0 0 0 0 0 0 0 0 0 0 0 0 0 0 0 0 0 0 0 0 0 0 0 0 0 0 0 0 0 0 0 0 0 0 0 0 0 0 0 0 0
0 0 0 0 0 0 0 0 0 0 0 0 0 0 0 0 0 0 0 0 0 0 0 0 0 0 0 0 0 0 0 0 0 0 0 0 0 0 0 0 0 0 0 0 0 0 0 0 0
0 0 0 0 0 0 0 0 0 0 0 0 0 0 0 0 0 0 0 0 0 0 0 0 0 0 0 0 0 0 0 0 0 0 0 0 0 0 0 0 0 0 0 0 0 0 0 0 0
0 0 0 0 0 0 0 0 0 0 0 0 0 0 0 0 0 0 0 0 0 0 0 0 0 0 0 0 0 0 0 0 0 0 0 0 0 0 0 0 0 0 0 0 0 0 0 0 0
0 0 0 0 0 0 0 0 0 0 0 0 0 0 0 0 0 0 0 0 0 0 0 0 0 0 0 0 0 0 0 0 0 0 0 0 0 0 0 0 0 0 0 0 0 0 0 0 0
0 0 0 0 0 0 0 0 0 0 0 0 0 0 0 0 0 0 0 0 0 0 0 0 0 0 0 0 0 0 0 0 0 0 0 0 0 0 0 0 0 0 0 0 0 0 0 0 0
0 0 0 0 0 0 0 0 0 0 0 0 0 0 0 0 0 0 0 0 0 0 0 0 0 0 0 0 0 0 0 0 0 0 0 0 0 0 0 0 0 0 0 0 0 0 0 0 0
0 0 0 0 0 0 0 0 0 0 0 0 0 0 0 0 0 0 0 0 0 0 0 0 0 0 0 0 0 0 0 0 0 0 0 0 0 0 0 0 0 0 0 0 0 0 0 0 0
0 0 0 0 0 0 0 0 0 0 0 0 0 0 0 0 0 0 0 0 0 0 0 0 0 0 1 0 0 0 0 0 0 0 0 0 0 0 0 0 0 0 0 0 0 0 0 0 0
0 0 0 0 0 0 0 0 0 0 0 0 0 0 0 0 0 0 0 0 0 0 0 0 0 0 0 0 0 0 0 0 0 0 0 0 0 0 0 0 0 0 0 0 0 0 0 0 0
0 0 0 0 0 0 0 0 0 0 0 0 0 0 0 0 0 0 0 0 0 0 0 0 0 0 0 0 0 0 0 0 0 0 0 0 0 0 0 0 0 0 0 0 0 0 0 0 0
0 0 0 0 0 0 0 0 0 0 0 0 0 0 0 0 0 0 0 0 0 0 0 0 0 0 0 0 0 0 0 1 0 0 0 0 0 0 0 0 0 0 0 0 0 0 0 0 0
0 0 0 0 0 0 0 0 0 0 0 0 0 0 0 0 0 0 0 0 0 0 0 0 0 0 0 0 0 0 0 0 0 0 0 0 0 0 0 0 0 0 0 0 0 0 0 0 0
0 0 0 0 0 0 0 0 0 0 0 0 0 0 0 0 0 0 0 0 0 0 0 0 0 0 0 0 0 0 0 0 0 0 0 0 0 0 0 0 0 0 0 0 0 0 0 0 0
0 0 0 0 0 0 0 0 0 0 0 0 0 0 0 0 0 0 0 0 0 0 0 0 0 0 0 0 0 0 0 0 1 1 1 0 0 0 0 0 0 0 0 0 0 0 0 0 0
Wind_Speed
2 3 3 3 4 2 5 5 4 6 5 6 6 6 7 7 6 7 5 5 6 6 7 9 9 10 11 11 11 12 11 11 11 11 11 10 10 10 10 9 9 9 8 8 7 7 7 7 7
1 2 3 4 3 3 5 4 7 7 8 8 7 7 8 8 7 7 6 6 6 8 7 9 10 11 11 11 11 12 12 11 11 11 11 10 10 9 9 9 8 8 8 8 8 7 7 7 7
2 3 3 2 1 3 6 7 10 10 7 5 5 6 6 6 6 6 7 8 8 9 8 10 10 11 11 11 11 12 12 11 11 10 10 10 9 9 8 8 8 8 8 8 8 7 7 7 7
2 3 2 1 7 6 6 9 10 9 6 5 7 8 7 6 5 8 9 8 9 9 9 11 10 11 11 11 11 11 11 10 10 10 10 9 9 9 8 8 7 7 8 8 8 8 7 7 7
2 3 3 5 7 6 7 7 5 6 6 6 7 9 9 7 9 10 9 8 9 9 9 11 10 11 11 10 10 10 10 10 9 9 9 9 8 8 8 7 7 7 7 7 7 7 7 7 7
2 3 3 6 7 7 6 5 5 8 9 9 9 10 8 7 9 9 9 9 9 9 9 10 11 11 10 10 10 9 9 9 9 9 8 8 8 8 8 8 7 7 7 7 7 7 7 7 7
2 1 3 7 8 7 6 4 5 8 9 7 7 9 9 8 8 8 8 8 8 8 8 7 9 10 10 9 9 9 9 9 8 8 8 8 8 7 7 7 7 7 7 7 7 7 7 7 7
1 2 5 6 8 7 6 6 6 8 9 7 5 7 10 10 9 8 8 8 7 7 7 7 7 7 7 8 9 8 8 8 8 8 7 5 4 5 4 5 8 8 8 7 7 7 7 7 7
3 3 4 5 7 8 9 8 6 5 9 6 5 8 12 13 11 10 8 7 7 6 6 6 6 6 5 6 6 6 6 5 3 5 4 1 4 5 4 10 8 8 7 7 7 6 5 3 5
2 2 4 3 5 9 10 9 8 8 10 9 11 12 14 12 11 10 9 9 8 7 7 6 6 5 5 4 4 3 4 4 4 5 5 4 5 4 4 7 6 6 5 5 5 2 1 2 3
2 3 6 5 7 10 10 8 6 9 9 11 15 16 14 12 10 9 8 7 7 7 6 6 5 5 5 4 4 3 3 3 4 6 5 4 4 3 3 2 3 3 1 3 2 1 2 3 3
4 6 5 7 8 9 9 8 7 6 8 12 14 15 13 11 10 8 8 8 7 7 6 6 5 5 5 5 4 3 3 3 4 5 6 4 3 3 4 3 4 3 2 3 2 2 4 4 4
6 6 6 7 8 8 9 9 8 9 11 13 14 13 11 10 9 8 7 7 7 6 6 5 4 5 5 5 3 4 4 4 5 4 4 5 4 4 3 3 3 3 3 2 2 3 4 4 4
7 9 8 8 8 8 10 9 7 10 12 13 13 11 10 9 8 8 7 7 7 7 6 5 4 5 4 4 4 4 4 3 4 4 5 6 4 4 3 4 4 4 3 3 2 4 3 3 3
10 10 8 6 6 6 9 8 7 11 13 13 11 10 9 8 7 6 6 6 6 7 6 6 4 4 4 5 5 4 3 4 4 4 5 6 5 5 4 4 4 4 3 3 3 4 3 3 3
6 6 6 5 5 4 5 7 9 11 12 11 10 10 9 8 7 6 6 5 5 6 6 6 4 4 5 4 4 3 4 4 4 4 4 6 6 6 4 4 4 4 3 3 3 3 3 3 3
5 6 8 7 4 4 5 7 9 10 11 10 10 10 9 9 8 7 6 6 6 6 6 6 5 5 5 5 4 4 4 4 4 4 4 5 6 6 5 4 4 4 3 3 3 3 3 4 4
7 8 7 7 5 6 6 6 8 9 10 10 10 10 9 9 8 7 7 6 6 6 6 6 6 5 6 4 4 3 3 3 3 4 4 5 5 6 5 4 4 4 3 3 3 4 3 3 3
6 8 7 5 4 5 6 6 7 9 10 10 10 10 10 9 8 7 8 7 7 7 7 7 7 7 5 4 3 3 3 2 3 3 5 4 5 5 5 4 5 4 4 4 4 3 3 3 2
7 8 7 6 4 4 5 4 6 8 10 10 10 10 10 9 9 8 9 9 8 8 7 8 7 6 6 3 2 2 3 2 3 2 3 4 4 5 4 5 4 4 3 4 4 3 2 2 2
6 6 7 6 6 5 4 4 6 7 8 8 9 10 10 10 11 11 10 10 9 9 9 7 7 7 6 6 3 3 3 3 3 3 2 3 4 4 4 5 4 4 4 4 4 3 2 2 2
5 4 5 6 5 4 4 3 6 8 9 10 11 11 12 11 11 10 10 11 11 10 9 9 8 7 7 7 5 5 3 2 2 2 2 2 3 3 3 4 4 4 4 4 3 3 2 2 1
4 4 4 4 3 3 4 4 5 8 10 11 12 13 13 12 12 11 11 11 10 10 9 8 8 7 6 6 5 5 3 2 3 3 3 2 3 3 3 3 3 3 3 4 4 3 3 2 2
6 5 4 3 3 3 4 4 4 7 9 10 11 12 13 12 12 12 11 10 9 9 9 8 8 8 7 7 7 6 4 4 4 3 3 2 2 2 2 2 2 2 3 3 3 3 4 3 3
6 5 4 5 4 2 3 4 2 3 5 8 10 11 12 12 12 12 12 12 10 10 10 10 10 9 9 8 8 7 6 5 5 4 3 2 2 2 2 1 1 2 2 3 2 2 3 3 3
6 5 2 2 3 3 4 4 1 1 2 5 8 9 10 11 11 12 13 12 11 11 11 11 11 10 9 9 8 7 7 4 3 4 3 2 1 1 2 1 1 1 2 2 2 1 2 2 2
4 3 2 2 2 2 3 2 2 3 3 4 6 8 10 11 11 12 12 12 11 11 12 11 11 11 10 9 8 7 7 5 5 4 3 2 2 2 2 2 2 2 1 1 1 1 1 1 2
3 1 3 3 2 2 3 3 2 2 2 4 6 8 9 9 11 11 11 11 11 10 10 10 11 10 10 9 8 6 6 6 5 4 4 3 3 3 3 2 2 2 2 1 1 0 1 1 1
4 4 3 2 3 2 2 2 3 1 1 1 4 6 7 8 9 10 10 10 10 9 9 10 10 10 9 9 8 7 6 6 6 5 4 4 3 4 4 3 2 2 2 1 1 0 0 0 0
3 3 4 2 1 2 1 2 3 1 2 1 2 4 6 7 8 9 9 9 9 9 9 9 9 9 9 8 8 7 6 7 6 5 5 4 4 4 3 3 3 2 2 2 1 1 1 1 1
Wind_Direction
184 173 201 225 224 142 91 87 103 114 91 80 79 83 78 51 44 78 88 94 95 94 91 93 84 87 87 85 84 82 84 85 81 79 75 73 70 71 71 71 68 65 61 58 55 52 54 56 55
183 184 226 238 239 132 98 104 108 93 110 110 84 82 80 71 61 87 105 100 100 95 90 84 86 87 87 87 85 83 83 83 79 76 72 71 70 70 69 67 64 62 60 58 55 52 53 54 52
168 230 252 236 94 80 106 112 111 106 108 108 93 67 64 75 77 89 105 113 104 95 90 87 86 87 88 87 85 84 82 81 78 75 72 70 69 68 66 64 62 60 57 54 51 50 51 51 51
215 214 219 136 93 67 103 120 123 122 104 90 106 89 78 61 74 103 114 114 106 100 95 91 87 88 87 85 82 81 80 78 75 72 69 66 64 62 61 59 60 58 56 53 50 50 53 50 50
238 239 173 117 93 88 103 114 129 119 110 111 109 101 89 78 96 108 113 111 106 103 99 96 88 87 84 82 79 77 75 72 70 67 63 59 56 55 55 53 52 53 52 50 48 49 51 51 50
223 228 177 132 112 113 116 122 129 116 112 113 111 107 94 109 111 110 112 109 104 104 103 103 96 87 82 78 76 74 72 70 67 64 60 55 51 49 49 49 50 52 54 52 48 47 50 53 53
258 211 141 130 130 132 127 130 133 125 120 112 118 109 118 123 115 116 112 108 105 107 105 105 110 107 98 81 70 68 66 65 63 59 56 53 49 45 42 46 48 53 56 52 50 49 51 54 55
298 177 140 141 145 129 131 125 115 121 110 113 120 123 134 134 130 123 116 112 111 111 109 106 102 99 100 98 78 68 65 61 61 60 54 53 83 79 56 61 53 50 53 51 48 47 52 55 57
251 202 155 144 149 131 143 135 120 113 119 110 94 108 124 133 138 135 130 126 118 111 109 107 104 98 90 86 91 94 90 71 83 90 76 6 50 60 76 53 48 46 48 50 48 46 48 64 93
253 182 110 108 132 135 145 137 134 141 131 122 116 116 129 141 146 143 141 135 129 121 111 107 106 100 92 83 87 74 75 67 51 46 48 41 51 47 43 93 67 58 56 74 55 36 169 258 94
49 90 106 108 121 135 140 133 141 145 139 140 139 139 144 148 149 147 139 129 122 121 116 112 107 98 89 88 79 68 66 64 58 47 50 39 46 59 48 60 95 82 60 64 86 188 50 54 55
93 89 107 115 124 137 137 133 133 130 123 135 138 143 148 152 151 150 141 134 133 125 119 114 107 102 94 87 83 78 72 59 55 43 38 36 38 37 45 41 41 44 53 43 40 38 52 50 60
102 105 102 112 121 127 126 123 118 116 122 131 137 146 151 151 147 143 138 138 137 134 130 115 108 95 92 84 81 82 70 53 62 43 32 38 35 42 48 51 43 42 43 53 42 46 51 44 47
108 111 110 114 119 125 125 120 124 128 138 140 145 151 154 153 152 151 152 150 145 144 134 129 125 110 104 102 93 80 76 75 59 49 41 39 43 42 40 55 50 42 36 37 45 63 61 55 49
127 120 111 107 116 129 135 127 131 140 149 148 153 153 153 160 161 163 157 157 150 145 141 137 132 121 108 95 86 84 74 68 61 51 41 46 44 42 46 44 50 41 41 47 44 61 55 60 66
147 149 135 120 130 151 174 137 137 152 158 157 160 157 164 172 178 168 160 161 155 156 150 142 146 137 118 109 102 90 76 67 62 55 43 41 43 43 46 44 46 39 39 47 54 43 54 61 56
174 158 144 140 145 161 173 141 147 163 169 167 170 170 174 177 181 170 169 167 163 165 159 154 151 145 132 125 116 97 85 70 62 56 46 36 40 39 50 39 32 41 43 45 53 52 44 62 64
160 151 148 147 149 164 162 148 152 171 179 178 178 180 181 185 183 175 175 172 167 169 164 152 151 154 142 142 129 113 93 83 70 61 53 39 36 38 46 48 39 37 49 51 63 69 59 56 59
147 146 138 129 141 168 167 166 170 179 184 187 188 187 187 190 183 178 178 175 176 176 173 163 166 162 162 156 155 138 114 100 85 68 60 53 45 41 45 38 44 31 47 46 59 71 85 70 50
145 143 137 129 146 175 163 179 188 189 197 200 200 196 193 192 188 183 186 184 187 182 181 176 174 173 172 163 152 128 110 104 87 79 69 53 49 43 41 47 54 52 56 55 54 51 48 67 16
153 159 149 140 143 158 165 188 192 191 202 207 213 212 204 200 196 187 190 188 189 188 187 185 181 175 177 169 156 143 138 151 138 112 80 55 51 50 40 45 48 50 52 57 46 41 33 44 52
140 142 154 161 175 162 203 192 191 190 199 207 210 210 212 206 203 194 192 193 192 190 189 187 182 179 174 175 183 181 179 150 122 108 103 95 70 61 48 54 50 53 53 59 54 49 32 7 35
120 136 146 166 178 177 195 222 174 188 202 204 206 207 211 208 203 200 199 196 193 186 186 188 181 181 178 183 183 196 181 152 137 133 124 110 90 68 57 51 54 55 58 55 52 48 33 32 19
138 144 136 173 209 203 193 233 181 190 212 208 202 204 206 205 203 203 199 193 189 185 183 185 185 182 183 188 189 193 179 171 159 160 149 143 121 102 82 61 67 63 59 61 53 54 56 41 39
185 189 178 183 190 170 160 236 246 192 219 217 207 201 200 198 197 197 193 192 188 187 187 187 187 187 188 193 194 191 189 185 182 179 168 171 139 124 103 90 73 72 69 65 53 52 48 56 49
199 232 250 178 165 144 180 228 87 68 217 217 208 199 194 192 194 194 192 192 189 189 189 190 191 192 189 194 193 192 188 194 187 192 189 180 154 124 118 124 96 88 85 84 71 36 47 43 51
196 209 310 304 171 176 168 180 169 158 169 180 191 192 192 193 192 193 192 191 190 189 190 192 192 192 190 192 191 191 189 192 191 192 193 182 177 154 156 157 147 137 123 82 74 41 59 44 28
299 230 213 242 204 171 168 187 156 138 147 169 185 191 192 190 190 190 190 190 190 189 187 190 194 193 190 192 191 190 193 191 194 199 191 186 181 174 183 183 174 164 153 149 122 51 35 50 62
180 199 217 239 289 274 167 112 53 37 3 221 194 191 195 192 189 186 185 186 184 182 183 187 190 190 189 192 191 189 189 191 191 196 193 195 194 190 195 195 201 190 184 172 153 203 160 272 94
250 244 234 248 205 272 276 93 73 340 323 286 222 197 193 189 183 180 179 177 178 181 184 187 188 188 188 189 190 191 187 191 196 194 197 197 194 197 202 197 204 200 208 201 196 209 216 256 302